Hourly Data Report for October 07, 2014

All times are specified in Local Standard Time (LST). Add 1 hour to adjust for Daylight Saving Time where and when it is observed.

KAMLOOPS A
BRITISH COLUMBIA

50°42'09.000" N
120°26'55.000" W
345.30 m
1163781
71887
YKA

Download Data

Hourly Data (October 2014)
Hourly Data Report for October 7, 2014
Temp Definition
°C
Dew Point Temp Definition
°C
Rel Hum Definition
%
Wind Dir Definition
10's deg

Wind Spd Definition
km/h
Visibility Definition
km
Stn Press Definition
kPa
Hmdx Definition


Wind Chill Definition


Weather Definition


TIME
00:00 Legend Double Dagger 13.9 12.8 93 36 2 64.4 97.44     LegendNANA
01:00 Legend Double Dagger 13.2 12.3 94 36 3 64.4 97.43     Mostly Cloudy
02:00 Legend Double Dagger 12.6 11.7 94 21 4 32.2 97.43     LegendNANA
03:00 Legend Double Dagger 12.9 12.0 94 36 1 24.1 97.41     LegendNANA
04:00 Legend Double Dagger 13.2 12.4 95 36 2 16.1 97.41     Cloudy
05:00 Legend Double Dagger 13.3 12.4 94 8 6 16.1 97.38     LegendNANA
06:00 Legend Double Dagger 13.7 11.9 89 10 10 24.1 97.37     LegendNANA
07:00 Legend Double Dagger 13.8 10.6 81 9 9 16.1 97.40     Cloudy
08:00 Legend Double Dagger 13.9 10.2 78 9 12 24.1 97.42     LegendNANA
09:00 Legend Double Dagger 14.1 9.4 73 9 12 24.1 97.43     LegendNANA
10:00 Legend Double Dagger 15.6 9.8 68 11 7 24.1 97.41     Mostly Cloudy
11:00 Legend Double Dagger 16.9 10.8 67 11 7 32.2 97.36     LegendNANA
12:00 Legend Double Dagger 18.1 11.3 64 20 6 64.4 97.28     LegendNANA
13:00 Legend Double Dagger 19.5 11.9 61 27 11 64.4 97.17     Mostly Cloudy
14:00 Legend Double Dagger 20.0 11.9 59 27 10 64.4 97.09     LegendNANA
15:00 Legend Double Dagger 20.8 11.3 54 26 10 64.4 97.02     LegendNANA
16:00 Legend Double Dagger 18.9 12.0 64 28 8 64.4 96.97     Mostly Cloudy
17:00 Legend Double Dagger 17.1 12.1 72 24 8 64.4 96.99     LegendNANA
18:00 Legend Double Dagger 16.1 12.1 77 26 7 64.4 97.00     LegendNANA
19:00 Legend Double Dagger 15.5 11.9 79 36 2 64.4 97.00     Mostly Cloudy
20:00 Legend Double Dagger 15.1 11.0 76 36 2 64.4 97.01     LegendNANA
21:00 Legend Double Dagger 14.2 11.7 85 9 3 64.4 97.03     LegendNANA
22:00 Legend Double Dagger 13.4 10.2 81 27 5 64.4 97.09     Cloudy
23:00 Legend Double Dagger 13.2 10.6 84 36 3 64.4 97.12     LegendNANA

Notes on Data Quality.

Legend

  • E = Estimated
  • M = Missing
  • NA = Not Available
  • ‡ = Partner data that is not subject to review by the National Climate Archives
Date modified: